ORBCOMM FM06

Last updated on Sun Jun 21 2026 00:03:16 GMT+0000 (Coordinated Universal Time)

1 25118U 97084G 26171.33789034 .00000856 00000+0 26971-3 0 9995 2 25118 45.0147 37.5444 0000857 343.3576 186.5581 14.47568941494840
UTC large
Height (km)
Speed (km/s)
/
Latitude / Longitude
Inclination (degrees)
Orbital Period (minutes)
Azimuth
Elevation
Range (km)
Doppler Factor

Next 0 passes for location: London (51.5072 / 0.1276)

No passes found over London.
ORBCOMM FM06